Weather observations for the past three days for
Wilmington, Airborne Airpark Airport
Imperial (Metric)
Date Time (edt) Wind (mph) Vis. (mi.) Weather Sky Cond. Temperature (ºF) Relative Humidity Wind Chill (°F) Heat Index (°F) Pressure Precipitation (in)
Air Dwpt 6 hour altimeter (in) sea level (mb) 1 hr 3 hr 6 hr
Max. Min.
15 04:54 SW 8 9.00 Fair CLR 72 68 87% 29.98 1014.6
15 03:54 S 6 9.00 Fair CLR 71.1 68 90% 29.98 1014.6
15 02:54 S 6 10.00 Fair CLR 72 69.1 91% 29.99 1014.2
15 01:54 SW 5 10.00 Fair CLR 72 69.1 75 70 91% 30.01 1014.9
15 00:54 SW 6 10.00 Fair CLR 71.1 68 90% 30.01 1014.8
14 23:54 S 8 10.00 Fair CLR 71.1 68 90% 29.99 1014.3
14 22:54 S 7 10.00 Fair CLR 71.1 68 90% 30 1014.8
14 21:54 S 5 9.00 Fair CLR 71.1 69.1 94% 30.02 1015.6
14 20:54 SW 5 10.00 Fair CLR 72 69.1 91% 30.03 1016.0
14 19:54 SW 7 10.00 Fair CLR 75 70 90 66.9 84% 75 30.04 1016.4 0.57
14 18:54 SW 10 10.00 Fair CLR 73.9 70 88% 30.04 1016.6
14 17:54 SW 8 10.00 Partly Cloudy FEW050 SCT100 71.1 68 90% 30.05 1017.1 0.05
14 16:54 W 8 8.00 Light Rain SCT120 70 66.9 90% 30.1 1018.6 0.52 0.52
14 15:54 NW 35 G 66 0.50 Thunderstorm in Vicinity Light Rain Fog Squalls and Windy FEW014 SCT042 BKN065 71.1 66.9 87% 30.17 1021.0
14 14:54 W 16 G 23 9.00 A Few Clouds FEW044 90 70 52% 95 30.07 1016.7
14 13:54 SW 12 9.00 Mostly Cloudy SCT039 SCT047 BKN055 87.1 71.1 89.1 73 59% 93 30.08 1017.4
14 12:54 SW 10 7.00 Partly Cloudy SCT034 SCT042 86 72 63% 92 30.1 1017.9
14 11:54 SW 14 G 22 7.00 Partly Cloudy FEW024 SCT032 84.9 73 68% 92 30.13 1018.8
14 10:54 W 12 7.00 Fair CLR 82.9 72 70% 88 30.13 1019.1
14 09:54 SW 10 8.00 Fair CLR 80.1 71.1 74% 84 30.14 1019.2
14 08:54 SW 6 6.00 Fair with Haze CLR 77 71.1 82% 79 30.14 1019.2
14 07:54 Calm 5.00 Fair with Haze CLR 73 68 73 64 84% 30.14 1019.2
14 06:54 SW 3 4.00 Fog/Mist CLR 64.9 63 93% 30.15 1019.8
14 05:54 S 3 5.00 Fog/Mist CLR 66 64 93% 30.13 1019.2
14 04:54 Calm 6.00 Fog/Mist CLR 66 64.9 96% 30.13 1019.0
14 03:54 Calm 6.00 Fog/Mist CLR 66 64.9 96% 30.12 1018.5
14 02:54 Calm 6.00 Fog/Mist CLR 66.9 64.9 93% 30.13 1019.2
14 01:54 Calm 7.00 Fair CLR 68 66 86 68 93% 30.17 1020.2
14 00:54 Calm 7.00 Fair CLR 69.1 66.9 93% 30.17 1020.5
13 23:54 Calm 9.00 Fair CLR 71.1 68 90% 30.16 1019.8
13 22:54 Calm 10.00 Fair CLR 73 68 84% 30.15 1019.8
13 21:54 Calm 10.00 Fair CLR 75 68 79% 76 30.15 1019.7
13 20:54 NW 5 10.00 Fair CLR 82.9 66 57% 85 30.16 1019.6
13 19:54 NW 8 10.00 Fair CLR 86 66 89.1 86 51% 88 30.16 1019.9
13 18:54 W 9 10.00 Fair CLR 87.1 66 50% 89 30.15 1019.8
13 17:54 W 10 10.00 Mostly Cloudy FEW049 BKN085 88 66.9 50% 91 30.16 1019.9
13 16:54 W 8 10.00 Partly Cloudy FEW049 SCT090 89.1 68 50% 93 30.16 1020.0
13 15:54 W 9 10.00 Partly Cloudy SCT046 SCT060 89.1 68 50% 93 30.17 1020.3
13 14:54 W 12 10.00 Partly Cloudy FEW044 SCT095 87.1 69.1 55% 91 30.18 1020.8
13 13:54 W 7 9.00 A Few Clouds FEW042 87.1 69.1 87.1 73.9 55% 91 30.19 1021.0
13 12:54 W 7 9.00 A Few Clouds FEW036 84.9 68 57% 88 30.2 1021.3
13 11:54 Vrbl 5 9.00 Mostly Cloudy SCT032 SCT048 BKN060 86 70 59% 91 30.2 1021.4
13 10:54 W 6 9.00 Partly Cloudy SCT027 81 70 69% 84 30.2 1021.6
13 09:54 Vrbl 6 9.00 Fair CLR 82.9 71.1 67% 88 30.21 1021.7
13 08:54 NW 6 8.00 Fair CLR 81 70 69% 84 30.2 1021.3
13 07:54 Calm 5.00 Fair with Haze CLR 73.9 69.1 73.9 66 85% 30.19 1021.2
13 06:54 Calm 2.50 Fog/Mist CLR 66.9 64.9 93% 30.19 1021.1
13 05:54 Calm 4.00 Fog/Mist CLR 66.9 64.9 93% 30.17 1020.7
13 04:54 Calm 7.00 Fair CLR 69.1 66 90% 30.16 1020.2
13 03:54 Calm 5.00 Fog/Mist CLR 69.1 66.9 93% 30.15 1019.9
13 02:54 Calm 4.00 Fog/Mist CLR 69.1 66.9 93% 30.15 1019.7
13 01:54 Calm 4.00 Fog/Mist CLR 69.1 66.9 82 68 93% 30.16 1020.1
13 00:54 Calm 4.00 Fog/Mist CLR 70 68 93% 30.16 1020.1
12 23:54 Calm 6.00 Fog/Mist CLR 71.1 70 96% 30.15 1019.7
12 22:54 Calm 7.00 Fair CLR 72 70 94% 30.15 1019.6
12 21:54 Calm 9.00 Fair CLR 73 70 90% 30.14 1019.4
12 20:54 Calm 9.00 Fair CLR 78.1 69.1 74% 80 30.12 1018.8
12 19:54 E 3 10.00 Fair CLR 82 70 88 75.9 67% 86 30.11 1018.7 0.01
12 18:54 Calm 10.00 Fair CLR 84 68 59% 87 30.11 1018.5
12 17:54 NW 3 10.00 Overcast OVC110 84.9 70 61% 89 30.11 1018.5
12 16:54 NW 6 9.00 A Few Clouds FEW085 80.1 69.1 69% 83 30.11 1018.6 0.01 0.01
12 15:54 W 15 7.00 Light Rain SCT055 BKN085 79 70 74% 82 30.12 1019.1
12 14:54 Calm 10.00 Mostly Cloudy FEW049 SCT055 BKN080 87.1 66.9 51% 90 30.12 1018.6
12 13:54 S 3 10.00 Fair CLR 86 66.9 87.1 70 53% 89 30.13 1019.0
12 12:54 S 6 10.00 Fair CLR 84 68 59% 87 30.15 1019.7
12 11:54 S 6 10.00 Fair CLR 84 66.9 57% 87 30.15 1019.7
12 10:54 Vrbl 6 10.00 Fair CLR 82.9 66 57% 85 30.15 1019.6
12 09:54 S 6 10.00 Fair CLR 79 66 65% 81 30.13 1019.3
12 08:54 Calm 10.00 Fair CLR 75 66.9 76% 76 30.13 1019.2
12 07:54 Vrbl 3 8.00 Fair CLR 70 66 70 66.9 87% 30.12 1019.1
12 06:54 E 3 4.00 Fog/Mist CLR 66.9 66 97% 30.11 1018.7
12 05:54 Calm 4.00 Fog/Mist CLR 66.9 66 97% 30.1 1018.2
Date Time (edt) Wind (mph) Vis. (mi.) Weather Sky Cond. Air Dwpt Max. Min. Relative Humidity Wind Chill (°F) Heat Index (°F) altimeter (in) sea level (mb) 1 hr 3 hr 6 hr
6 hour
Temperature (ºF) Pressure Precipitation (in)